Weather in Hoholeve

Ukraine / Poltava Region     49˚55′00″N   33˚49′27″E
temp.,
°C
wind,
m/s
gust,
m/s
humid.,
%
clouds,
%
prec.,
mm/h
press.,
hPa
HPBL,
m
28 november, sat
sat2823:00+4˚wsw2676100 0.0 1019267
02:00+3˚w2481100 0.0 1019199
05:00+3˚s1187100 0.3 101956
08:00+4˚ese2489100 0.7 1019224
11:00+4˚sse2481100 0.1 1019301
14:00+5˚s1274100 0.2 1018313
17:00+4˚ssw1175100 0.0 101822
20:00+3˚sse1281100 0.0 101822
29 november, sun
sun2923:00+3˚sse1278100 0.0 101822
02:00+3˚ene0079100 0.1 101922
05:00+3˚nne2285100 0.6 101851
08:00+3˚nw1191100 1.8 101941
11:00+5˚wsw1185100 0.0 1020259
14:00+5˚wnw1190100 1.1 1021210
17:00+4˚n1195100 0.3 102158
20:00+4˚ene1295100 0.3 102225
30 november, mon
mon3023:00+4˚nne2393100 0.0 102265
02:00+5˚se1397100 2.8 1022194
05:00+5˚se2695100 0.3 1022315
08:00+5˚sse2696100 1.1 1023338
11:00+5˚sse4890100 0.4 1024416
14:00+5˚sse2594100 2.1 1024332
17:00+4˚s2695100 1.6 1025435
20:00+5˚se1792100 3.1 1026491
1 december, tue
tue123:00+4˚sse2685100 0.2 1026430
02:00+4˚sse1483100 0.3 1026212
05:00+4˚nne1284100 0.1 102649
08:00+4˚e2582100 0.1 1027426
11:00+4˚e4570100 0.0 1027571
14:00+2˚e4583100 0.0 1027504
17:00+1˚ene3596100 0.2 1027290
20:00+1˚e4695100 0.4 1027384
2 december, wed
wed223:00e4696100 0.2 1027389
02:00e4693100 0.4 1027381
05:00e4793100 0.1 1027398
08:00e4691100 0.3 1028398
11:00+1˚ese4690100 0.1 1028439
14:00+1˚ese3592100 0.2 1028352
17:00+1˚ese4796100 0.1 1028379
20:00ese4797100 0.3 1029349